Sussex, Wisconsin, United States (53089)
Lat: 43.13N, Lon: 88.22W
Wx Zone: WIZ065
Local Info
Past Weather Observations for Today

NOTE: This archive is for the closest National Weather Service station to Sussex. Information may differ from the station used for current weather conditions.

Click here for Long-term Archive

Time Weather Temperature Dewpoint Humidity Pressure Winds Precip Visibility
11:45
Clear
63°F / 17°C 34°F / 1°C 34% 29.92 in
(1013 mb)
W 17.3 mph
(W 28 kph)
- 10SM
10:45
Clear
61°F / 16°C 36°F / 2°C 39% 29.95 in
(1014 mb)
WNW 13.8 mph
(WNW 22 kph)
- 10SM
09:45
Clear
61°F / 16°C 43°F / 6°C 52% 29.95 in
(1014 mb)
WNW 13.8 mph
(WNW 22 kph)
- 10SM
08:45
Clear
57°F / 14°C 46°F / 8°C 67% 29.95 in
(1014 mb)
WNW 9.2 mph
(WNW 15 kph)
- 10SM
07:45
Clear
Fog And Mist
52°F / 11°C 50°F / 10°C 94% 29.92 in
(1013 mb)
W 9.2 mph
(W 15 kph)
- 5SM
06:45
Clear
Fog And Mist
52°F / 11°C 50°F / 10°C 94% 29.92 in
(1013 mb)
W 9.2 mph
(W 15 kph)
- 4SM
05:45
Clear
Fog And Mist
54°F / 12°C 52°F / 11°C 94% 29.89 in
(1012 mb)
SSW 9.2 mph
(SSW 15 kph)
- 5SM
04:45
Partly Cloudy
Fog And Mist
54°F / 12°C 52°F / 11°C 94% 29.89 in
(1012 mb)
SSW 9.2 mph
(SSW 15 kph)
- 4SM
04:35
Mostly Cloudy
Fog And Mist
52°F / 11°C 52°F / 11°C 100% 29.89 in
(1012 mb)
SSW 6.9 mph
(SSW 11 kph)
- 4SM
04:15
Overcast
Fog And Mist
54°F / 12°C 52°F / 11°C 94% 29.89 in
(1012 mb)
SSW 8.1 mph
(SSW 13 kph)
- 5SM
03:55
Overcast
Fog And Mist
54°F / 12°C 52°F / 11°C 94% 29.89 in
(1012 mb)
SSW 9.2 mph
(SSW 15 kph)
- 5SM
03:35
Overcast
Fog And Mist
54°F / 12°C 52°F / 11°C 94% 29.89 in
(1012 mb)
SSW 13.8 mph
(SSW 22 kph)
- 5SM
03:15
Overcast
Fog And Mist
54°F / 12°C 52°F / 11°C 94% 29.89 in
(1012 mb)
SSW 11.5 mph
(SSW 19 kph)
- 5SM
02:55
Overcast
Fog And Mist
54°F / 12°C 52°F / 11°C 94% 29.89 in
(1012 mb)
SSW 10.4 mph
(SSW 17 kph)
- 5SM
02:35
Overcast
Fog And Mist
54°F / 12°C 52°F / 11°C 94% 29.89 in
(1012 mb)
W 11.5 mph
(W 19 kph)
- 5SM
02:15
Overcast
54°F / 12°C 52°F / 11°C 94% 29.89 in
(1012 mb)
W 12.7 mph
(W 20 kph)
- 7SM
01:55
Overcast
54°F / 12°C 52°F / 11°C 94% 29.89 in
(1012 mb)
W 15 mph
(W 24 kph)
- 7SM
01:35
Mostly Cloudy
54°F / 12°C 52°F / 11°C 94% 29.89 in
(1012 mb)
W 12.7 mph
(W 20 kph)
- 7SM
01:15
Mostly Cloudy
52°F / 11°C 50°F / 10°C 94% 29.89 in
(1012 mb)
SSW 10.4 mph
(SSW 17 kph)
- 10SM
00:55
Mostly Cloudy
52°F / 11°C 50°F / 10°C 94% 29.89 in
(1012 mb)
SSW 9.2 mph
(SSW 15 kph)
- 10SM
00:35
Partly Cloudy
52°F / 11°C 46°F / 8°C 82% 29.89 in
(1012 mb)
SW 5.8 mph
(SW 9 kph)
- 10SM
00:15
Partly Cloudy
50°F / 10°C 46°F / 8°C 88% 29.89 in
(1012 mb)
SW 6.9 mph
(SW 11 kph)
- 10SM
Time Weather Temperature Dewpoint Humidity Pressure Winds Precip Visibility


Weather for websites

WeatherForYou.com, LLC is not responsible for any damages or problems caused by this service. Current weather conditions are obtained from the closest station including government and personal stations which may have varying degrees of accuracy. Weather forecasts are derived from the NOAA NDFD. Like all things, this site belongs to Jesus Christ... He just trusts me to maintain it. If you have any questions or comments email webmaster@weatherforyou.com

Copyright © 2014, WeatherForYou.com LLC. All rights reserved.